Date String (YYYY-MM-DD hh:mm:ss) UTC,Instrument flags,Ambient pressure (hPa),Sample flow (lpm),Bypass flow (lpm),Sample temperature (°C),Ambient temperature (°C),ASC tube jacket temperature (°C),LED temperature (°C),Box temperature (°C),Sample RH (%),Span deviation,Mass concentration (μg/m³),Mass concentration (μg/m³),Mass concentration (μg/m³)
DateTimeUTC,F1_M11,P_M11,Q1_M11,Q2_M11,T1_M11,T2_M11,T3_M11,T4_M11,T5_M11,U1_M11,ZSPAN_M11,X0_M11,X2_M11,X1_M11
2022-10-03 16:00:00,,0830.6,4.98,0.00,30.4,29.2,00.0,39.0,32.2,23.2,0000.0,0009.68,0004.47,0003.59
2022-10-03 16:01:00,,0830.6,5.01,0.00,30.4,29.2,00.0,39.1,32.1,23.0,0000.0,0010.03,0004.51,0003.57
2022-10-03 16:02:00,,0830.6,5.01,0.00,30.4,29.2,00.0,39.1,32.2,22.9,0000.0,0009.93,0004.52,0003.56
2022-10-03 16:03:00,,0830.6,4.99,0.00,30.4,29.2,00.0,39.1,32.2,23.2,0000.0,0009.97,0004.55,0003.54
2022-10-03 16:04:00,,0830.6,5.00,0.00,30.4,29.2,00.0,39.1,32.2,22.3,0000.0,0010.12,0004.58,0003.52
2022-10-03 16:05:00,,0830.6,5.00,0.00,30.4,29.2,00.0,39.1,32.2,21.1,0000.0,0010.15,0004.55,0003.48
2022-10-03 16:06:00,,0830.6,5.01,0.00,30.4,29.2,00.0,39.1,32.2,21.7,0000.0,0010.38,0004.52,0003.43
2022-10-03 16:07:00,,0830.6,4.99,0.00,30.4,29.2,00.0,39.1,32.2,22.0,0000.0,0010.54,0004.45,0003.39
2022-10-03 16:08:00,,0830.6,5.00,0.00,30.4,29.3,00.0,39.1,32.2,21.9,0000.0,0010.51,0004.36,0003.33
2022-10-03 16:09:00,,0830.6,5.00,0.00,30.5,29.3,00.0,39.2,32.2,22.2,0000.0,0010.09,0004.32,0003.29
2022-10-03 16:10:00,,0830.7,5.01,0.00,30.5,29.3,00.0,39.2,32.3,22.2,0000.0,0010.29,0004.29,0003.26
2022-10-03 16:11:00,,0830.6,4.99,0.00,30.5,29.3,00.0,39.2,32.3,22.3,0000.0,0010.61,0004.32,0003.22
2022-10-03 16:12:00,,0830.6,5.00,0.00,30.5,29.3,00.0,39.2,32.3,22.7,0000.0,0010.15,0004.25,0003.19
2022-10-03 16:13:00,,0830.6,5.00,0.00,30.5,29.3,00.0,39.2,32.3,23.6,0000.0,0010.55,0004.20,0003.18
2022-10-03 16:14:00,,0830.6,5.00,0.00,30.5,29.4,00.0,39.2,32.3,23.8,0000.0,0011.03,0004.17,0003.18
2022-10-03 16:15:00,,0830.6,5.00,0.00,30.5,29.4,00.0,39.2,32.3,23.7,0000.0,0010.85,0004.11,0003.17
2022-10-03 16:16:00,,0830.6,5.00,0.00,30.5,29.4,00.0,39.2,32.4,23.1,0000.0,0010.81,0004.10,0003.18
2022-10-03 16:17:00,,0830.6,4.99,0.00,30.6,29.4,00.0,39.2,32.4,22.9,0000.0,0010.55,0004.07,0003.20
2022-10-03 16:18:00,,0830.6,5.00,0.00,30.6,29.4,00.0,39.3,32.4,23.2,0000.0,0010.37,0004.10,0003.22
2022-10-03 16:19:00,,0830.7,4.99,0.00,30.6,29.4,00.0,39.3,32.4,23.7,0000.0,0010.11,0004.09,0003.25
2022-10-03 16:20:00,,0830.6,5.01,0.00,30.6,29.4,00.0,39.3,32.4,23.2,0000.0,0009.99,0004.04,0003.26
2022-10-03 16:21:00,,0830.6,4.99,0.00,30.6,29.5,00.0,39.3,32.4,23.5,0000.0,0009.50,0004.01,0003.28
2022-10-03 16:22:00,,0830.6,5.01,0.00,30.6,29.5,00.0,39.3,32.4,23.3,0000.0,0009.24,0003.96,0003.29
2022-10-03 16:23:00,,0830.6,4.99,0.00,30.6,29.5,00.0,39.3,32.4,22.5,0000.0,0009.48,0003.95,0003.30
2022-10-03 16:24:00,,0830.6,5.01,0.00,30.7,29.5,00.0,39.3,32.4,21.9,0000.0,0009.24,0003.95,0003.31
2022-10-03 16:25:00,,0830.6,4.99,0.00,30.7,29.5,00.0,39.3,32.5,23.2,0000.0,0008.65,0003.93,0003.32
2022-10-03 16:26:00,,0830.6,5.00,0.00,30.7,29.6,00.0,39.3,32.5,23.5,0000.0,0008.73,0003.94,0003.33
2022-10-03 16:27:00,,0830.6,4.99,0.00,30.7,29.6,00.0,39.4,32.5,23.5,0000.0,0008.88,0003.95,0003.36
2022-10-03 16:28:00,,0830.6,5.01,0.00,30.7,29.6,00.0,39.4,32.5,23.5,0000.0,0009.98,0003.96,0003.39
2022-10-03 16:29:00,,0830.6,4.98,0.00,30.7,29.6,00.0,39.4,32.5,22.9,0000.0,0010.35,0003.95,0003.42
2022-10-03 16:30:00,,0830.6,5.02,0.00,30.7,29.6,00.0,39.4,32.5,23.1,0000.0,0010.51,0003.96,0003.44
2022-10-03 16:31:00,,0830.6,4.99,0.00,30.8,29.6,00.0,39.4,32.5,22.7,0000.0,0010.62,0004.02,0003.48
2022-10-03 16:32:00,,0830.6,5.00,0.00,30.8,29.7,00.0,39.4,32.6,22.4,0000.0,0011.17,0004.05,0003.51
2022-10-03 16:33:00,,0830.6,4.99,0.00,30.8,29.7,00.0,39.4,32.6,22.4,0000.0,0011.10,0004.04,0003.53
2022-10-03 16:34:00,,0830.6,5.01,0.00,30.8,29.7,00.0,39.5,32.6,22.6,0000.0,0010.57,0004.07,0003.57
2022-10-03 16:35:00,,0830.6,4.99,0.00,30.8,29.7,00.0,39.5,32.6,23.1,0000.0,0010.90,0004.11,0003.61
2022-10-03 16:36:00,,0830.6,5.01,0.00,30.8,29.7,00.0,39.5,32.6,22.4,0000.0,0010.65,0004.10,0003.63
2022-10-03 16:37:00,,0830.6,5.00,0.00,30.8,29.3,00.0,39.5,32.6,22.7,0000.0,0010.36,0004.10,0003.65
2022-10-03 16:38:00,,0830.6,4.99,0.00,30.8,28.0,00.0,39.5,32.5,22.7,0000.0,0009.91,0004.09,0003.67
2022-10-03 16:39:00,,0830.6,5.00,0.00,30.8,27.3,00.0,39.4,32.4,21.3,0000.0,0009.14,0004.11,0003.67
2022-10-03 16:40:00,,0830.6,5.01,0.00,30.7,27.4,00.0,39.4,32.3,22.2,0000.0,0008.30,0004.07,0003.65
2022-10-03 16:41:00,,0830.6,5.01,0.00,30.6,27.6,00.0,39.3,32.2,21.9,0000.0,0008.05,0004.04,0003.64
2022-10-03 16:42:00,,0830.6,4.99,0.00,30.5,28.0,00.0,39.3,32.1,21.7,0000.0,0008.27,0004.00,0003.62
2022-10-03 16:43:00,,0830.6,4.99,0.00,30.5,28.3,00.0,39.3,32.1,22.0,0000.0,0007.74,0004.00,0003.63
2022-10-03 16:44:00,,0830.6,5.01,0.00,30.5,28.5,00.0,39.2,32.1,22.1,0000.0,0007.77,0004.01,0003.63
2022-10-03 16:45:00,,0830.6,5.00,0.00,30.4,28.7,00.0,39.2,32.1,22.5,0000.0,0007.73,0003.98,0003.61
2022-10-03 16:46:00,,0830.6,5.00,0.00,30.4,28.8,00.0,39.2,32.2,22.7,0000.0,0007.34,0003.96,0003.61
2022-10-03 16:47:00,,0830.6,5.00,0.00,30.4,28.9,00.0,39.2,32.2,22.3,0000.0,0007.49,0003.98,0003.60
2022-10-03 16:48:00,,0830.6,5.01,0.00,30.4,29.0,00.0,39.2,32.2,21.9,0000.0,0007.49,0003.97,0003.59
2022-10-03 16:49:00,,0830.6,4.99,0.00,30.4,29.1,00.0,39.2,32.2,21.9,0000.0,0007.49,0003.97,0003.59
2022-10-03 16:50:00,,0830.6,5.00,0.00,30.5,29.2,00.0,39.2,32.2,22.1,0000.0,0007.38,0003.97,0003.59
2022-10-03 16:51:00,,0830.6,4.99,0.00,30.5,29.2,00.0,39.2,32.3,22.2,0000.0,0007.40,0003.98,0003.61
2022-10-03 16:52:00,,0830.6,5.01,0.00,30.5,29.3,00.0,39.2,32.3,21.9,0000.0,0007.42,0003.99,0003.61
2022-10-03 16:53:00,,0830.6,4.99,0.00,30.5,29.3,00.0,39.2,32.3,21.9,0000.0,0007.01,0003.98,0003.61
2022-10-03 16:54:00,,0830.6,5.01,0.00,30.5,29.4,00.0,39.2,32.3,21.9,0000.0,0006.89,0003.98,0003.60
2022-10-03 16:55:00,,0830.6,5.00,0.00,30.5,29.4,00.0,39.2,32.3,22.1,0000.0,0006.80,0003.97,0003.60
2022-10-03 16:56:00,,0830.6,5.00,0.00,30.6,29.4,00.0,39.2,32.4,22.3,0000.0,0006.83,0003.97,0003.60
2022-10-03 16:57:00,,0830.6,5.00,0.00,30.6,29.4,00.0,39.3,32.4,21.8,0000.0,0006.75,0003.97,0003.59
2022-10-03 16:58:00,,0830.5,5.00,0.00,30.6,29.5,00.0,39.3,32.4,21.7,0000.0,0006.48,0003.95,0003.59
2022-10-03 16:59:00,,0830.6,5.00,0.00,30.6,29.5,00.0,39.3,32.4,21.6,0000.0,0006.46,0003.94,0003.58
